This is the latest recevied weather packets stored in our database for station/object CE1RLP-31. If no packets are shown the sender has not sent any weather packets the latest 10 day(s).
| Time | Temp. | Humidity | Pressure | Rain* | Wind** | Luminosity | Snow |
|---|---|---|---|---|---|---|---|
| 1777522950 | 6.67° C | 13% | 1097.2 hPa | - | - | - | - |
| 1777522050 | 6.67° C | 13% | 1097.1 hPa | - | - | - | - |
| 1777521152 | 6.67° C | 14% | 1097.3 hPa | - | - | - | - |
| 1777520252 | 6.67° C | 13% | 1097.3 hPa | - | - | - | - |
| 1777519351 | 6.67° C | 13% | 1097.4 hPa | - | - | - | - |
| 1777518451 | 6.67° C | 14% | 1097.4 hPa | - | - | - | - |
| 1777517551 | 6.67° C | 12% | 1097.2 hPa | - | - | - | - |
| 1777516651 | 6.67° C | 11% | 1097.3 hPa | - | - | - | - |
| 1777515751 | 7.22° C | 9% | 1097.4 hPa | - | - | - | - |
| 1777514851 | 7.22° C | 8% | 1097.4 hPa | - | - | - | - |
| 1777513952 | 7.22° C | 8% | 1097.4 hPa | - | - | - | - |
| 1777513051 | 7.22° C | 8% | 1097.4 hPa | - | - | - | - |
| 1777512151 | 7.78° C | 8% | 1097.4 hPa | - | - | - | - |
| 1777511251 | 7.78° C | 8% | 1097.6 hPa | - | - | - | - |
| 1777510351 | 7.78° C | 8% | 1097.5 hPa | - | - | - | - |
| 1777508550 | 8.33° C | 8% | 1097.3 hPa | - | - | - | - |
| 1777505850 | 8.89° C | 8% | 1097 hPa | - | - | - | - |
| 1777503150 | 10° C | 10% | 1096.7 hPa | - | - | - | - |
| 1777502250 | 10.56° C | 14% | 1096.6 hPa | - | - | - | - |
| 1777501349 | 11.67° C | 14% | 1096.7 hPa | - | - | - | - |
| 1777500449 | 12.22° C | 13% | 1096.5 hPa | - | - | - | - |
| 1777499551 | 12.22° C | 11% | 1096.6 hPa | - | - | - | - |
| 1777498651 | 13.33° C | 11% | 1096.5 hPa | - | - | - | - |
| 1777497751 | 12.22° C | 11% | 1096.3 hPa | - | - | - | - |
| 1777496851 | 13.33° C | 10% | 1096.5 hPa | - | - | - | - |
* Rain since midnight (hover to see other rain measurements)
** Current wind speed in m/s (hover to see current wind gust speed)